Regional Weather Roundup
Issued by NWS

Home | Current Version | Previous Version | Graphics & Text | Print | Product List | Glossary On
Versions: 1 2 3 4 5 6 7 8 9 10 11 12 13 14 15 16 17 18 19 20 21 22 23 24 25 26 27 28 29 30 31 32 33 34 35 36 37 38 39 40 41 42 43 44 45 46 47 48 49 50
000
ASUS45 KCYS 200910
RWRWY

WYOMING REGIONAL WEATHER ROUNDUP
NATIONAL WEATHER SERVICE CHEYENNE WY
300 AM MDT SAT SEP 20 2014

NOTE:  "FAIR" INDICATES FEW OR NO CLOUDS BELOW 12,000 FEET
WITH NO SIGNIFICANT WEATHER AND/OR OBSTRUCTIONS TO VISIBILITY.

WYZ001-201000-
YELLOWSTONE NATIONAL PARK

CITY           SKY/WX    TMP DP  RH WIND       PRES   REMARKS
LK YELLOWSTONE   N/A     38  36  92 CALM      30.36R
W YELLOWSTONE  NOT AVBL

$$
WYZ002>013-054>058-071-098>099-201000-
NORTHERN WYOMING

CITY           SKY/WX    TMP DP  RH WIND       PRES   REMARKS
JACKSON        CLEAR     39  39 100 NW3       30.29R
CODY             N/A    N/A N/A N/A MISG        N/A
GREYBULL       CLEAR     56  43  61 CALM      30.09R
WORLAND        CLEAR     56  45  66 CALM      30.11R
SHERIDAN       PTCLDY    53  45  74 CALM      30.09R
BUFFALO        PTCLDY    55  44  66 W7        30.15R
GILLETTE       CLEAR     55  45  68 SW8       30.08F
HULETT         FAIR      52  45  76 MISG      30.09
NEWCASTLE      FAIR      55  43  62 N9        30.09

$$
WYZ014>020-022>026-101>103-201000-
CENTRAL WYOMING

CITY           SKY/WX    TMP DP  RH WIND       PRES   REMARKS
BIG PINEY      CLEAR     40  34  79 CALM      30.29S
PINEDALE       SUNNY     39  36  87 NW9       30.31R WCI  33
DUBOIS         FAIR      45  34  65 NW12      30.29R
LANDER         CLEAR     57  34  41 W3        30.18R
RIVERTON       CLEAR     56  42  59 NE10      30.18R
CASPER         CLEAR     48  41  76 NW7       30.17S
DOUGLAS        CLEAR     48  43  82 CALM      30.16R

$$
WYZ021-027>030-104>119-201000-
SOUTHERN WYOMING

CITY           SKY/WX    TMP DP  RH WIND       PRES   REMARKS
EVANSTON       CLEAR     53  38  56 S6        30.30S
KEMMERER       SUNNY     45  36  70 CALM      30.31R
FORT BRIDGER   FAIR      53  38  56 SW8       30.32S
ROCK SPRINGS   CLEAR     51  34  52 W9        30.27S
DIXON          FAIR      45  37  73 CALM      30.28R
RAWLINS        CLEAR     48  32  53 CALM      30.23S
SARATOGA       FAIR      45  34  65 S6        30.26S
LARAMIE        CLEAR     46  38  73 SE8       30.25S
CHEYENNE       CLEAR     59  43  55 NW9       30.18R
TORRINGTON     CLEAR     58  47  66 NW8       30.08R
PINE BLUFFS    FAIR      54  46  76 NW3       30.13R

$$



USA.gov is the U.S. government's official web portal to all federal, state and local government web resources and services.